Weather History for KTRK - July, 2013

Change the Weather History Date:

Tuesday, July 9, 2013

  Actual Average (KRNO) Record (KRNO)
Temperature  
Mean Temperature 58 °F 74 °F  
Max Temperature 80 °F 91 °F 102 °F (2007)
Min Temperature 37 °F 57 °F 36 °F (1944)
Degree Days  
Heating Degree Days 6 0  
Month to date heating degree days 0  
Since 1 June heating degree days 56  
Since 1 July heating degree days 0  
Cooling Degree Days 0 9  
Month to date cooling degree days 77  
Year to date cooling degree days 250  
Since 1 June cooling degree days 213  
Growing Degree Days 8 (Base 50)    
Moisture  
Dew Point 32 °F    
Average Humidity 44    
Maximum Humidity 81    
Minimum Humidity 17    
Precipitation  
Precipitation 0.00 in 0.01 in 0.27 in (1974)
Month to date precipitation 0.05  
Year to date precipitation 4.33  
Snow  
Snow 0.00 in 0.00 in 0.00 in ()
Month to date snowfall 0.0  
Since 1 June snowfall T  
Since 1 July snowfall 0.0  
Snow Depth -    
Sea Level Pressure  
Sea Level Pressure 30.32 in    
Wind  
Wind Speed 3 mph (SW)    
Max Wind Speed 15 mph    
Max Gust Speed 24 mph    
Visibility 10 miles    
Events      
T = Trace of Precipitation, MM = Missing Value Source: NWS Daily Summary

Daily Weather History Graph

Daily Weather History Graph

Search for Another Location

Airport or City:

Trip Planner

Search our weather history database for the weather conditions in past years. The results will help you decide how hot, cold, wet, or windy it might be!

Date:

Astronomy

Jul. 09, 2013 Rise Set
Actual Time 5:42 AM PDT 8:29 PM PDT
Civil Twilight 5:10 AM PDT 9:00 PM PDT
Nautical Twilight 4:30 AM PDT 9:40 PM PDT
Astronomical Twilight 3:45 AM PDT 10:25 PM PDT
Moon 7:10 AM PDT (7/9) 9:10 PM PDT (7/9)
Length of Visible Light 15h 50m
Length of Day
14h 46m
New Moon, 2% of the Moon is Illuminated
Jul 9
New Moon
Jul 15
First Quarter
Jul 22
Full
Jul 29
Last Quarter
Aug 6
New

Hourly Weather History & Observations

Time (PDT) Temp. Windchill Dew Point Humidity Pressure Visibility Wind Dir Wind Speed Gust Speed Precip Events Conditions
12:15 AM 50.0 °F - 33.8 °F 54% 30.31 in 10.0 mi Calm Calm - N/A   Clear
12:35 AM 50.0 °F - 32.0 °F 50% 30.31 in 10.0 mi Calm Calm - N/A   Clear
12:55 AM 48.2 °F - 33.8 °F 58% 30.31 in 10.0 mi Calm Calm - N/A   Clear
1:15 AM 48.2 °F - 35.6 °F 62% 30.31 in 10.0 mi Calm Calm - N/A   Clear
1:35 AM 48.2 °F - 35.6 °F 62% 30.30 in 10.0 mi Calm Calm - N/A   Clear
1:55 AM 46.4 °F - 35.6 °F 66% 30.30 in 10.0 mi Calm Calm - N/A   Clear
2:15 AM 46.4 °F - 32.0 °F 57% 30.31 in 10.0 mi Calm Calm - N/A   Clear
2:35 AM 44.6 °F - 32.0 °F 61% 30.31 in 10.0 mi Calm Calm - N/A   Clear
2:55 AM 46.4 °F - 33.8 °F 62% 30.30 in 10.0 mi Calm Calm - N/A   Clear
3:15 AM 44.6 °F - 33.8 °F 66% 30.31 in 10.0 mi Calm Calm - N/A   Clear
3:35 AM 44.6 °F - 33.8 °F 66% 30.31 in 10.0 mi Calm Calm - N/A   Clear
3:55 AM 44.6 °F - 33.8 °F 66% 30.31 in 10.0 mi Calm Calm - N/A   Clear
4:15 AM 44.6 °F - 32.0 °F 61% 30.31 in 10.0 mi Calm Calm - N/A   Clear
4:35 AM 41.0 °F - 32.0 °F 70% 30.32 in 10.0 mi Calm Calm - N/A   Clear
4:55 AM 41.0 °F - 32.0 °F 70% 30.32 in 10.0 mi Calm Calm - N/A   Unknown
5:15 AM 41.0 °F - 32.0 °F 70% 30.32 in 10.0 mi Calm Calm - N/A   Unknown
5:35 AM 39.2 °F - 32.0 °F 75% 30.33 in 10.0 mi Calm Calm - N/A   Clear
5:55 AM 41.0 °F 39.0 °F 32.0 °F 70% 30.34 in 10.0 mi SW 3.5 mph - N/A   Clear
6:15 AM 37.4 °F - 32.0 °F 81% 30.34 in 10.0 mi Calm Calm - N/A   Clear
6:35 AM 42.8 °F - 32.0 °F 66% 30.34 in 10.0 mi Calm Calm - N/A   Clear
6:55 AM 46.4 °F - 32.0 °F 57% 30.35 in 10.0 mi Calm Calm - N/A   Clear
7:45 AM 51.8 °F - 32.0 °F 47% 30.35 in 10.0 mi Calm Calm - N/A   Clear
8:50 AM 60.8 °F - 32.0 °F 34% 30.35 in 10.0 mi Calm Calm - N/A   Clear
9:45 AM 73.4 °F - 28.4 °F 19% 30.34 in 10.0 mi SW 13.8 mph 18.4 mph N/A   Scattered Clouds
10:45 AM 77.0 °F - 28.4 °F 17% 30.34 in 10.0 mi WSW 10.4 mph 18.4 mph N/A   Partly Cloudy
11:45 AM 77.0 °F - 30.2 °F 18% 30.34 in 10.0 mi South 10.4 mph 16.1 mph N/A   Mostly Cloudy
12:45 PM 80.6 °F - 32.0 °F 17% 30.34 in 10.0 mi SW 15.0 mph 19.6 mph N/A   Mostly Cloudy
1:45 PM 78.8 °F - 32.0 °F 18% 30.33 in 10.0 mi SSW 15.0 mph 21.9 mph N/A   Scattered Clouds
2:45 PM 78.8 °F - 32.0 °F 18% 30.33 in 10.0 mi WSW 13.8 mph 24.2 mph N/A   Clear
3:50 PM 78.8 °F - 32.0 °F 18% 30.32 in 10.0 mi WNW 5.8 mph 18.4 mph N/A   Clear
4:45 PM 78.8 °F - 32.0 °F 18% 30.31 in 10.0 mi West 10.4 mph 19.6 mph N/A   Clear
5:55 PM 77.0 °F - 32.0 °F 19% 30.30 in 10.0 mi SW 12.7 mph 16.1 mph N/A   Clear
6:15 PM 77.0 °F - 32.0 °F 19% 30.30 in 10.0 mi West 13.8 mph 18.4 mph N/A   Clear
6:35 PM 75.2 °F - 32.0 °F 21% 30.30 in 10.0 mi West 11.5 mph 16.1 mph N/A   Clear
6:55 PM 75.2 °F - 32.0 °F 21% 30.30 in 10.0 mi West 11.5 mph - N/A   Clear
7:15 PM 73.4 °F - 32.0 °F 22% 30.31 in 10.0 mi West 12.7 mph - N/A   Clear
7:35 PM 73.4 °F - 32.0 °F 22% 30.31 in 10.0 mi WSW 9.2 mph - N/A   Clear
7:55 PM 71.6 °F - 32.0 °F 23% 30.31 in 10.0 mi West 8.1 mph - N/A   Clear
8:15 PM 69.8 °F - 32.0 °F 25% 30.32 in 10.0 mi WSW 5.8 mph - N/A   Clear
8:35 PM 66.2 °F - 32.0 °F 28% 30.31 in 10.0 mi West 4.6 mph - N/A   Clear
8:55 PM 62.6 °F - 32.0 °F 32% 30.32 in 10.0 mi South 4.6 mph - N/A   Clear
9:15 PM 57.2 °F - 33.8 °F 41% 30.32 in 10.0 mi SSE 6.9 mph - N/A   Clear
9:35 PM 55.4 °F - 33.8 °F 44% 30.33 in 10.0 mi South 6.9 mph - N/A   Clear
9:55 PM 55.4 °F - 32.0 °F 41% 30.34 in 10.0 mi SSE 4.6 mph - N/A   Clear
10:15 PM 55.4 °F - 32.0 °F 41% 30.34 in 10.0 mi SSE 5.8 mph - N/A   Clear
10:35 PM 51.8 °F - 32.0 °F 47% 30.34 in 10.0 mi Calm Calm - N/A   Clear
10:55 PM 55.4 °F - 32.0 °F 41% 30.34 in 10.0 mi Calm Calm - N/A   Clear
11:15 PM 51.8 °F - 33.8 °F 50% 30.34 in 10.0 mi SSW 3.5 mph - N/A   Clear
11:35 PM 50.0 °F - 33.8 °F 54% 30.35 in 10.0 mi Calm Calm - N/A   Clear
11:55 PM 51.8 °F - 35.6 °F 54% 30.34 in 10.0 mi Calm Calm - N/A   Clear